EHI
0 0 0 0 0 0 0 0 0 0 0 0 0 0 0 0 0 0 0 0 0 0 0 0 0 0 0 0 0 0 0 0 0 0 0 0 0 0
0 0 0 0 0 0 0 0 0 0 0 0 0 0 0 0 0 0 0 0 0 0 0 0 0 0 0 0 0 0 0 0 0 0 0 0 0 0
0 0 0 0 0 0 0 0 0 0 0 0 0 0 0 0 0 0 0 0 0 0 0 0 0 0 0 0 0 0 0 0 0 0 0 0 0 0
0 0 0 0 0 0 0 0 0 0 0 0 0 0 0 0 0 0 0 0 0 0 0 0 0 0 0 0 0 0 0 0 0 0 0 0 0 0
0 0 0 0 0 0 0 0 0 0 0 0 0 0 0 0 0 0 0 0 0 0 0 0 0 0 0 0 0 0 0 0 0 0 0 0 0 0
0 0 0 0 0 0 0 0 0 0 0 0 0 0 0 0 0 0 0 0 0 0 0 0 0 0 0 0 0 0 0 0 0 0 0 0 0 0
0 0 0 0 0 0 0 0 0 0 0 0 0 0 0 0 0 0 0 0 0 0 0 0 0 0 0 0 0 0 0 0 0 0 0 0 0 0
0 0 0 0 0 0 0 0 0 0 0 0 0 0 0 0 0 0 0 0 0 0 0 0 0 0 0 0 0 0 0 0 0 0 0 0 0 0
0 0 0 0 0 0 0 0 0 0 0 0 0 0 0 0 0 0 0 0 0 0 0 0 0 0 0 0 0 0 0 0 0 0 0 0 0 0
0 0 0 0 0 0 0 0 0 0 0 0 0 0 0 0 0 0 0 0 0 0 0 0 0 0 0 0 0 0 0 0 0 0 0 0 0 0
0 0 0 0 0 0 0 0 0 0 0 0 0 0 0 0 0 0 0 0 0 0 0 0 0 0 0 0 0 0 0 0 0 0 0 0 0 0
0 0 0 0 0 0 0 0 0 0 0 0 0 0 0 0 0 0 0 0 0 0 0 0 0 0 0 0 0 0 0 0 0 0 0 0 0 0
0 0 0 0 0 0 0 0 0 0 0 0 0 0 0 0 0 0 0 0 0 0 0 0 0 0 0 0 0 0 0 0 0 0 0 0 0 0
0 0 0 0 0 0 0 0 0 0 0 0 0 0 0 0 0 0 0 0 0 0 0 0 0 0 0 0 0 0 0 0 0 0 0 0 0 0
0 0 0 0 0 0 0 0 0 0 0 0 0 0 0 0 0 0 0 0 0 0 0 0 0 0 0 0 0 0 0 0 0 0 0 0 0 0
0 0 0 0 0 0 0 0 0 0 0 0 0 0 0 0 0 0 0 0 0 0 0 0 0 0 0 0 0 0 0 0 0 0 0 0 0 0
0 0 0 0 0 0 0 0 0 0 0 0 0 0 0 0 0 0 0 0 0 0 0 0 0 0 0 0 0 0 0 0 0 0 0 0 0 0
0 0 0 0 0 0 0 0 0 0 0 0 0 0 0 0 0 0 0 0 0 0 0 0 0 0 0 0 0 0 0 0 0 0 0 0 0 0
0 0 0 0 0 0 0 0 0 0 0 0 0 0 0 0 0 0 0 0 0 0 0 0 0 0 0 0 0 0 0 0 0 0 0 0 0 0
0 0 0 0 0 0 0 0 0 0 0 0 0 0 0 0 0 0 0 0 0 0 0 0 0 0 0 0 0 0 0 0 0 0 0 0 0 0
0 0 0 0 0 0 0 0 0 0 0 0 0 0 0 0 0 0 0 0 0 0 0 0 0 0 0 0 0 0 0 0 0 0 0 0 0 0
0 0 0 0 0 0 0 0 0 0 0 0 0 0 0 0 0 0 0 0 0 0 0 0 0 0 0 0 0 0 0 0 0 0 0 0 0 0
0 0 0 0 0 0 0 0 0 0 0 0 0 0 0 0 0 0 0 0 0 0 0 0 0 0 0 0 0 0 0 0 0 0 0 0 0 0
Wind_Speed
1 1 1 2 2 3 3 4 5 3 2 2 1 1 3 3 8 6 6 10 11 9 8 6 5 4 4 4 4 4 4 4 4 5 6 7 8 9
2 2 1 0 1 2 2 3 3 5 4 4 3 2 4 4 9 6 7 13 11 10 9 7 5 4 4 4 5 5 5 5 5 5 6 7 8 9
2 3 3 2 1 1 1 2 3 4 4 4 2 2 4 4 4 3 4 5 5 10 10 8 5 4 5 5 6 6 6 6 6 6 6 7 7 8
1 2 3 2 2 2 1 1 2 3 4 5 3 2 3 4 5 5 4 4 4 9 11 9 7 7 7 8 8 9 9 8 8 7 6 7 7 8
3 3 3 3 2 1 2 2 1 1 2 3 3 2 2 2 4 3 4 3 3 7 10 11 10 10 10 9 9 10 10 10 9 7 6 6 6 7
6 5 4 3 3 3 3 2 1 1 1 2 3 2 2 2 4 5 3 2 3 3 6 8 9 9 8 8 8 8 8 9 9 8 6 5 6 8
9 8 8 9 7 5 4 3 3 2 1 1 1 2 2 2 3 3 4 3 3 2 2 3 3 3 3 5 6 7 8 9 9 9 8 7 7 9
8 8 8 10 13 14 13 11 8 5 3 2 1 1 2 1 2 3 4 4 3 1 2 2 2 2 2 2 4 7 8 10 11 11 10 10 10 10
6 6 6 7 8 7 9 12 12 13 11 4 4 4 3 3 2 3 3 3 3 1 2 1 2 1 2 2 6 7 9 10 11 11 11 12 12 13
4 5 5 6 6 7 6 7 8 8 8 6 4 4 4 4 4 3 3 4 4 3 2 1 1 1 2 2 6 9 10 10 11 11 12 13 13 14
3 4 5 5 10 10 7 6 7 6 9 11 10 9 7 6 4 3 2 3 3 2 3 2 2 2 2 2 4 10 10 10 11 13 14 14 14 13
4 4 6 7 9 9 5 4 5 4 5 6 9 12 11 13 13 7 3 2 2 2 3 2 2 3 3 2 2 3 4 7 13 15 15 13 13 6
2 3 3 8 8 7 6 3 6 6 5 6 6 7 7 7 7 7 6 4 3 2 2 2 1 1 2 3 3 3 2 3 6 8 10 12 12 9
1 1 2 6 7 7 4 6 10 8 5 5 6 6 6 6 5 5 6 6 4 3 2 2 1 0 1 2 3 3 3 4 4 4 3 9 12 14
2 3 1 5 7 5 8 11 9 5 5 5 5 5 4 4 4 4 5 5 4 3 4 3 2 1 1 2 3 3 4 4 3 3 4 6 5 5
4 4 6 6 5 6 8 7 5 5 5 5 4 3 3 4 5 4 4 4 3 3 3 3 3 2 2 4 5 5 3 4 4 5 5 5 5 4
0 1 2 2 3 4 4 4 4 5 5 4 3 3 4 4 4 4 3 3 2 2 2 3 3 4 6 5 5 6 4 4 5 4 4 6 5 5
5 3 3 3 3 3 3 3 3 3 3 3 3 2 3 3 2 2 2 2 2 2 2 2 3 3 3 4 6 6 4 4 4 4 4 7 8 6
6 4 3 2 2 1 1 1 1 2 2 2 2 1 1 1 2 2 2 2 3 3 3 2 2 3 4 4 5 5 5 6 7 7 6 6 9 10
4 3 3 2 1 0 1 1 1 1 1 1 1 0 0 1 1 2 2 3 4 4 3 1 1 3 4 5 6 7 12 9 7 8 8 8 8 12
3 4 3 3 2 1 1 1 1 2 2 1 1 2 2 2 2 3 3 6 5 4 5 4 4 8 5 4 6 7 7 10 12 10 9 10 11 9
2 2 2 2 2 1 1 1 1 2 2 2 2 3 3 3 3 4 4 4 4 4 6 5 5 4 3 4 7 8 10 10 11 17 18 16 11 8
2 2 2 3 2 2 2 2 3 3 3 3 3 3 3 3 4 4 5 5 5 5 6 6 4 3 4 5 7 8 11 12 9 9 9 15 20 23
Wind_Direction
121 149 163 188 179 167 154 148 145 163 230 263 253 218 184 168 167 154 154 161 155 151 145 134 119 97 70 47 30 14 1 354 348 338 330 325 321 317
63 65 53 323 215 179 169 163 155 158 197 229 226 211 184 185 181 164 166 162 159 158 155 145 128 98 65 41 24 9 358 349 340 326 317 316 318 321
44 57 40 24 7 331 156 159 169 158 184 230 228 207 172 175 168 172 159 146 155 158 152 143 120 83 54 33 18 6 356 349 343 334 325 318 316 319
107 79 47 43 35 9 34 132 167 177 176 205 219 189 188 185 166 160 153 148 143 146 136 121 99 78 64 51 37 23 10 358 347 340 333 329 326 322
97 98 84 86 78 57 57 64 89 164 171 186 210 188 172 153 136 123 118 113 117 123 117 104 94 80 66 53 41 28 14 2 351 339 331 330 329 325
56 64 68 87 110 104 80 54 51 78 137 177 190 179 161 148 142 141 127 102 86 82 104 100 84 71 56 42 33 23 13 6 358 343 329 318 315 315
42 40 40 44 61 73 82 60 50 50 55 133 170 156 149 146 159 146 136 120 69 48 82 73 63 50 32 18 21 24 29 28 23 13 0 346 332 320
38 33 35 37 33 35 44 50 52 53 40 36 45 115 97 81 101 125 130 137 132 29 65 46 52 37 3 353 16 35 46 48 40 32 23 14 3 350
48 42 39 38 45 32 31 40 42 48 53 50 43 41 54 29 64 82 82 90 105 86 70 50 25 358 336 5 28 50 51 41 31 22 16 9 0 350
65 64 53 34 52 50 49 59 55 48 54 58 68 60 62 51 54 78 89 94 80 38 39 108 25 340 344 360 42 51 35 26 19 12 4 355 348 341
69 77 66 37 45 54 56 65 59 42 46 62 70 70 75 97 105 90 96 103 104 63 13 75 31 338 328 350 35 26 17 14 9 358 348 342 337 335
45 48 59 49 39 60 57 62 68 51 43 61 67 63 57 56 59 54 54 88 102 99 20 47 35 7 339 332 345 349 355 357 352 343 337 334 334 332
59 38 21 35 33 51 60 40 71 80 62 76 76 65 58 51 44 40 39 46 66 82 47 45 55 27 348 318 316 316 327 331 329 323 326 330 333 336
39 358 355 37 43 52 54 60 69 71 66 72 69 59 52 45 37 37 42 45 48 52 16 28 44 179 295 288 284 301 308 299 298 302 305 323 326 323
327 302 10 55 57 38 56 72 68 61 65 69 67 58 45 38 35 30 26 24 26 41 47 35 19 315 246 251 276 287 307 296 291 296 307 308 302 305
359 5 26 47 69 70 68 61 54 69 75 69 64 48 37 40 39 24 15 9 15 13 2 354 345 308 261 257 263 268 256 274 298 302 297 289 284 283
42 62 47 48 74 80 76 70 64 64 68 66 56 46 40 36 27 13 5 4 358 332 321 324 316 289 261 253 264 266 266 262 262 279 295 300 290 283
63 57 58 60 69 72 77 75 72 78 80 77 66 47 38 22 7 353 352 347 324 310 303 300 311 316 305 280 242 262 274 275 284 295 297 299 299 291
48 43 42 45 58 77 94 107 107 102 104 90 84 61 21 5 352 344 340 327 308 297 291 295 317 332 328 312 299 290 304 309 307 301 294 289 294 297
31 27 18 10 5 359 183 171 163 156 150 148 154 191 288 305 308 312 311 301 302 302 302 300 295 306 306 306 297 288 291 287 289 294 297 293 284 288
20 17 9 3 358 348 318 249 211 217 215 208 220 233 241 249 267 278 280 298 306 302 296 290 271 304 304 289 279 279 279 284 290 289 292 295 297 295
338 337 334 333 333 323 304 287 269 259 249 238 240 240 240 239 251 259 258 262 262 262 271 276 276 284 259 265 276 283 290 295 292 292 284 277 282 288
289 292 294 298 295 283 270 265 260 257 249 243 242 240 236 237 241 245 251 254 259 266 274 281 282 264 259 262 274 281 285 292 299 297 287 285 284 281